Terug naar catalogus

STARLINK-5598

ActiefCommunicatieVLEO
NORAD 55421·PAYLOAD·🇺🇸 United States

Gelanceerd Jan 31, 2023 vanaf Vandenberg Space Force Base

Loading…

Volgende Passages (komende 24 uur)

TLE

VersSource: CelesTrak SupGP

Epoch: Sep 14, 2026, 22:28 UTC

1 55421C 23014AG  26257.93659722 -.00002430  00000+0 -20378-3 0  2572
2 55421  70.0006 327.2851 0003398 269.8320 316.3863 14.98308575    14

Volg STARLINK-5598 in realtime met AllMySat

Download on the App Store